Regional Weather Roundup
Issued by NWS

Home | Current Version | Previous Version | Graphics & Text | Print | Product List | Glossary On
Versions: 1 2 3 4 5 6 7 8 9 10 11 12 13 14 15 16 17 18 19 20 21 22 23 24 25 26 27 28 29 30 31 32 33 34 35 36 37 38 39 40 41 42 43 44 45 46 47 48 49 50
000
ASUS44 KMEG 041910
RWRTN
TENNESSEE HOURLY STATE WEATHER ROUNDUP
NATIONAL WEATHER SERVICE MEMPHIS TN
200 PM CDT TUE AUG 04 2015

TNZ002-004-019-021-049-052-054-088>092-042000-
WEST TENNESSEE

CITY           SKY/WX    TMP DP  RH WIND       PRES   REMARKS
MEMPHIS INTL   CLOUDY    96  67  38 VRB5      29.99F HX 100
NWS MEMPHIS      N/A     95 N/A N/A MISG        N/A
JACKSON        PTSUNNY   96  70  42 VRB5      30.00F HX 102
DYERSBURG        N/A    N/A N/A N/A MISG        N/A
PARIS          SUNNY     93  70  46 W6        30.01S HX  99
LEXINGTON      MOSUNNY   93  70  46 SW6       30.00F HX  99
$$

TNZ008-025-027-028-033-062-065-066-042000-
NORTH MIDDLE TENNESSEE

CITY           SKY/WX    TMP DP  RH WIND       PRES   REMARKS
NASHVILLE      PTSUNNY   97  65  34 SW6       30.00F HX  99
CLARKSVILLE    MOSUNNY   92  70  48 VRB7      30.00S HX  97
SMYRNA         MOSUNNY   99  68  36 SW8       30.00F HX 104
COOKEVILLE     SUNNY     97  75  49 VRB5      30.03S HX 109
CROSSVILLE     MOSUNNY   88  66  48 NW8       30.09F HX  90
$$

TNZ061-075-076-078-094-096-097-042000-
SOUTH MIDDLE TENNESSEE

CITY           SKY/WX    TMP DP  RH WIND       PRES   REMARKS
FAYETTEVILLE     N/A     91  64  40 CALM      30.03S HX  93
WINCHESTER     SUNNY     93  64  38 W5        30.03F HX  95
MCMINNVILLE    SUNNY     91  70  49 SW5       30.04S HX  97
COLUMBIA       SUNNY     97  70  41 VRB6      30.00S HX 103
SHELBYVILLE    MOSUNNY   95  70  43 NE6       30.02F HX 101
$$

TNZ017-018-042-046-047-042000-
NORTHEAST TENNESSEE

CITY           SKY/WX    TMP DP  RH WIND       PRES   REMARKS
TRI CITIES     MOSUNNY   91  64  40 CALM      30.03F HX  92
ELIZABETHTON   PTCLDY    88  64  45 NW7       30.04F
$$

TNZ012-013-036-069-073-074-042000-
CENTRAL EAST TENNESSEE

CITY           SKY/WX    TMP DP  RH WIND       PRES   REMARKS
KNOXVILLE      PTSUNNY   92  64  39 VRB3      30.01F HX  93
OAK RIDGE      MOSUNNY   94  65  38 W8        30.02F HX  96
GATLINBURG       N/A     91  63  38 VRB7      30.01F HX  92
MORRISTOWN     CLEAR     91  70  49 SW9       30.04F HX  97
$$

TNZ083-085-099-042000-
SOUTHEAST TENNESSEE

CITY           SKY/WX    TMP DP  RH WIND       PRES   REMARKS
CHATTANOOGA    PTSUNNY   95  63  34 SW6       30.00F HX  96
$$

SKY/WX REPORTED AS FAIR MEANS FEW OR NO CLOUDS BELOW
12 THOUSAND FEET.




USA.gov is the U.S. government's official web portal to all federal, state and local government web resources and services.